POEM 4 (BGS ARPIT) (62461 NORAD) Tracking and Keplerian Element Data

This shows tracking and keplerian element data for the satellite.

Feedback or suggestion? Click here.




ElementValue
Catalog62461
NamePOEM 4 (BGS ARPIT)
Epoch Orbit549
Epoch Day34.63097932
Epoch Year2025
RAAN89.1224
Inclination55.2203
Eccentricity0.0011261
Argument of Perigee21.3809
Mean Anonmoly338.7708
Mean Motion15.79197486
Decay Rate0.00123833
L11 62461U 24253C 25034.63097932 .00123833 00000-0 67031-3 0 9998
L22 62461 55.2203 89.1224 0011261 21.3809 338.7708 15.79197486 5499



Live tracking and technical data element details for POEM 4 (BGS ARPIT) (NORAD 62461). POEM 4 (BGS ARPIT) can be tracked NOW for your location showing map with azimuth and elevation plus other details from your city location.







IsCatalogInMostPopularTable: catalog: 62461, numindb: 11
Update: records affected: 1



GetName: 62461 POEM 4 (BGS ARPIT)

Hit Count: updated at: Sat, 24 May 2025 16:43:24 GMT